User: anonymous   Login
Location: Hartman Creek State Park
(44.3257°N, 89.2134°W)
Time: 22:44:35
(UTC-05:00)
Language:

BREEZE-M DEB (TANK) - Orbit

View from above orbital plane
View from above orbital plane
View from above satellite
View from above satellite

Ground track
Ground track

The orbit data is extracted from the following two-line orbital elements,

1 29649U 06056B   17176.34069325 -.00001024 +00000-0 -29248-3 0  9998
2 29649 049.4866 227.7987 5364718 166.4526 217.2229 04.99638702188195
Epoch (UTC): 25 June 2017 08:10:35
Eccentricity: 0.5364718
inclination: 49.4866°
perigee height: 321 km
apogee height: 15828 km
right ascension of ascending node: 227.7987°
argument of perigee: 166.4526°
revolutions per day: 4.99638702
mean anomaly at epoch: 217.2229°
orbit number at epoch: 18819

The dashed part of the orbit path shows where the satellite is in the earth's shadow,  

DLR